Flight Track Log - Related Links

Times and Time Zones

All times are in EDT time to prevent confusion due to time zone crossing. See the SWA608 flight status page for this flight to view local times or setup timezone preferences in your user account.

Time Position Orientation Groundspeed Altitude Reporting Facility
EDT Latitude Longitude Course Direction KTS MPH feet Rate Location/Type
09:35PM 33.4167 -112.0833 248° West 213 245 3,300  Level Phoenix TRACON
09:36PM 33.4039 -112.1253 250° West 220 253 4,300 2,118 Climbing Albuquerque Center
09:37PM 33.3781 -112.2100 250° West 266 306 6,900 2,634 Climbing Albuquerque Center
09:38PM 33.3831 -112.3025 274° West 280 322 9,700 2,557 Climbing Albuquerque Center
09:39PM 33.3964 -112.4036 279° West 309 356 12,100 2,439 Climbing Albuquerque Center
09:40PM 33.4119 -112.5172 279° West 342 394 14,700 2,634 Climbing Albuquerque Center
09:41PM 33.4286 -112.6417 279° West 365 420 17,500 3,000 Climbing Albuquerque Center
09:42PM 33.4494 -112.7950 279° West 383 441 20,800 2,683 Climbing Albuquerque Center
09:43PM 33.4722 -112.9244 282° West 395 455 23,000 2,098 Climbing Albuquerque Center
09:44PM 33.4992 -113.0608 283° West 412 474 25,100 1,967 Climbing Albuquerque Center
09:45PM 33.5261 -113.1989 283° West 420 483 27,000 2,000 Climbing Albuquerque Center
09:46PM 33.5525 -113.3389 283° West 426 490 29,200 1,463 Climbing Albuquerque Center
09:47PM 33.5794 -113.4783 283° West 428 493 30,000 393 Climbing Albuquerque Center
09:48PM 33.6053 -113.6208 282° West 432 497 30,000  Level Albuquerque Center
09:49PM 33.6314 -113.7681 282° West 440 506 30,000  Level Albuquerque Center
09:50PM 33.6597 -113.9114 283° West 442 509 30,000  Level Albuquerque Center
09:51PM 33.6914 -114.0872 282° West 448 516 30,000  Level Albuquerque Center
09:52PM 33.7161 -114.2297 282° West 448 516 30,000  Level Albuquerque Center
09:53PM 33.7433 -114.3764 283° West 448 516 30,000  Level Albuquerque Center
09:54PM 33.7694 -114.5247 282° West 450 518 30,000  Level Albuquerque Center
09:56PM 33.7836 -114.6986 276° West 447 514 30,000  Level Los Angeles Center
09:57PM 33.7922 -114.8483 274° West 447 514 30,000  Level Los Angeles Center
09:58PM 33.7994 -114.9975 273° West 450 518 30,000  Level Los Angeles Center
09:59PM 33.8075 -115.1467 274° West 449 517 30,000  Level Los Angeles Center
10:00PM 33.8169 -115.3253 274° West 449 517 30,000  Level Los Angeles Center
10:01PM 33.8253 -115.4744 274° West 449 517 30,000 -244 Level Los Angeles Center
10:02PM 33.8328 -115.6242 273° West 449 517 29,500 -774 Descending Los Angeles Center
10:03PM 33.8403 -115.7742 273° West 450 518 28,400 -1,016 Descending Los Angeles Center
10:04PM 33.8481 -115.9183 274° West 441 507 27,400 -1,024 Descending Los Angeles Center
10:05PM 33.8542 -116.0611 273° West 435 501 26,300 -1,854 Descending Los Angeles Center
10:06PM 33.8614 -116.2269 273° West 418 481 23,600 -2,516 Descending Los Angeles Center
10:07PM 33.8664 -116.3561 273° West 393 452 21,100 -2,537 Descending Los Angeles Center
10:08PM 33.8728 -116.4828 274° West 384 442 18,400 -2,488 Descending Los Angeles Center
10:09PM 33.8789 -116.6078 273° West 381 438 16,000 -2,129 Descending Los Angeles Center
10:10PM 33.8844 -116.7317 273° West 376 433 14,000 -976 Descending Los Angeles Center
10:11PM 33.8892 -116.8397 273° West 328 377 14,000 -482 Level Los Angeles Center
10:12PM 33.9000 -116.9333 278° West 278 320 13,100 -1,744 Descending Southern California TRACON
10:13PM 33.9000 -117.0500 270° West 297 342 10,600 -2,033 Descending Southern California TRACON
10:14PM 33.9167 -117.1333 284° West 287 330 9,000 -1,670 Descending Southern California TRACON
10:15PM 33.9500 -117.2000 301° West 266 306 7,400 -1,500 Descending Southern California TRACON
10:16PM 34.0000 -117.2667 312° West 241 277 6,000 -1,450 Descending Southern California TRACON
10:17PM 34.0333 -117.3333 301° West 233 268 4,500 -1,056 Descending Southern California TRACON
10:18PM 34.0500 -117.4000 287° West 193 222 3,800 -857 Descending Southern California TRACON
10:19PM 34.0500 -117.4667 270° West 198 228 2,700 -939 Descending Southern California TRACON
10:20PM 34.0500 -117.5167 270° West 150 173 2,000 -737 Descending Southern California TRACON
10:21PM 34.0500 -117.5667 270° West 138 159 1,300 -700 Descending Southern California TRACON
10:23PM 34.0500 -117.6000 292° West  Level FlightAware Approximate
10:30PM 34.0560 -117.6012 292° West  Level Estimated

Login

Don't have an account? Register now (free) for customized features, flight alerts, and more!